Berlin Tegel, Germany

6:09 PM CEST on August 19, 2017 (GMT +0200)
Tegel

Weather History for EDDT - January, 2014

Change the Weather History Date:

Friday, January 3, 2014

  Actual Average Record
Temperature  
Mean Temperature 42 °F -  
Max Temperature 48 °F 37 °F 50 °F (1998)
Min Temperature 37 °F 28 °F 10 °F (1997)
Degree Days  
Heating Degree Days 22    
Moisture  
Dew Point 38 °F    
Average Humidity 80    
Maximum Humidity 100    
Minimum Humidity 60    
Precipitation  
Precipitation 0.00 in - - ()
Sea Level Pressure  
Sea Level Pressure 29.79 in    
Wind  
Wind Speed 6 mph ()    
Max Wind Speed 13 mph    
Max Gust Speed -    
Visibility 12.9 miles    
Events Rain    
Averages and records for this station are not official NWS values.
T = Trace of Precipitation, MM = Missing Value Source: Averaged Metar Reports

Daily Weather History Graph

Daily Weather History Graph

Search for Another Location

Airport or City:

Trip Planner

Search our weather history database for the weather conditions in past years. The results will help you decide how hot, cold, wet, or windy it might be!

Date:

Astronomy

Jan. 03, 2014 Rise Set
Actual Time 8:17 AM CET 4:05 PM CET
Civil Twilight 7:36 AM CET 4:46 PM CET
Nautical Twilight 6:52 AM CET 5:30 PM CET
Astronomical Twilight 6:10 AM CET 6:11 PM CET
Moon 9:09 AM CET (1/3) 7:18 PM CET (1/3)
Length of Visible Light 9h 10m
Length of Day
7h 47m
Waxing Crescent, 6% of the Moon is Illuminated
Jan 3
Waxing Crescent
Jan 8
First Quarter
Jan 16
Full
Jan 24
Last Quarter
Jan 30
New

Hourly Weather History & Observations

Time (CET) Temp. Windchill Dew Point Humidity Pressure Visibility Wind Dir Wind Speed Gust Speed Precip Events Conditions
12:00 AM 42 °F - 38 °F 80% 29.78 in 16 mi SSW 4.5 mph - -   Partly Cloudy
12:20 AM 42.8 °F 41.1 °F 39.2 °F 87% 29.77 in 6.2 mi South 3.5 mph - N/A   Mostly Cloudy
12:50 AM 41.0 °F 39.0 °F 37.4 °F 87% 29.77 in - SSE 3.5 mph - N/A   Clear
1:00 AM 42 °F - 38 °F 82% 29.79 in 19 mi SSE 2.2 mph - -   Partly Cloudy
1:20 AM 41.0 °F 39.0 °F 37.4 °F 87% 29.80 in - South 3.5 mph - N/A   Clear
1:50 AM 39.2 °F 35.9 °F 37.4 °F 93% 29.80 in 6.2 mi South 4.6 mph - N/A   Partly Cloudy
2:00 AM 40 °F - 38 °F 88% 29.81 in 19 mi South 4.5 mph - -   Partly Cloudy
2:20 AM 41.0 °F 38.0 °F 39.2 °F 93% 29.80 in 6.2 mi South 4.6 mph - N/A   Mostly Cloudy
2:50 AM 41.0 °F 39.0 °F 39.2 °F 93% 29.80 in 6.2 mi SSW 3.5 mph - N/A   Mostly Cloudy
3:00 AM 41 °F - 39 °F 90% 29.83 in 16 mi SSW 2.2 mph - -   Overcast
3:20 AM 41.0 °F 39.0 °F 37.4 °F 87% 29.83 in - South 3.5 mph - N/A   Clear
3:50 AM 39.2 °F 37.0 °F 37.4 °F 93% 29.83 in - South 3.5 mph - N/A   Clear
4:00 AM 40 °F - 37 °F 87% 29.84 in 16 mi South 2.2 mph - -   Scattered Clouds
4:20 AM 39.2 °F 37.0 °F 37.4 °F 93% 29.83 in - SSW 3.5 mph - N/A   Clear
4:50 AM 39.2 °F 35.9 °F 37.4 °F 93% 29.83 in 6.2 mi South 4.6 mph - N/A   Mostly Cloudy
5:00 AM 39 °F - 38 °F 92% 29.84 in 17 mi South 4.5 mph - -   Mostly Cloudy
5:20 AM 39.2 °F 35.9 °F 37.4 °F 93% 29.83 in 6.2 mi South 4.6 mph - N/A   Partly Cloudy
5:50 AM 37.4 °F 33.8 °F 37.4 °F 100% 29.83 in 6.2 mi SSW 4.6 mph - N/A   Partly Cloudy
6:00 AM 38 °F - 36 °F 91% 29.84 in 19 mi SSW 4.5 mph - -   Scattered Clouds
6:20 AM 39.2 °F 35.0 °F 37.4 °F 93% 29.83 in - South 5.8 mph - N/A   Clear
6:50 AM 37.4 °F 32.8 °F 37.4 °F 100% 29.83 in - South 5.8 mph - N/A   Clear
7:00 AM 38 °F - 37 °F 94% 29.85 in 19 mi South 6.7 mph - -  
7:20 AM 39.2 °F 34.2 °F 37.4 °F 93% 29.83 in - South 6.9 mph - N/A   Clear
7:50 AM 39.2 °F 34.2 °F 35.6 °F 87% 29.83 in - South 6.9 mph - N/A   Clear
8:00 AM 38 °F - 36 °F 90% 29.84 in 19 mi South 6.7 mph - -   Scattered Clouds
8:20 AM 39.2 °F 33.6 °F 37.4 °F 93% 29.83 in - South 8.1 mph - N/A   Clear
8:50 AM 39.2 °F 33.0 °F 35.6 °F 87% 29.83 in - South 9.2 mph - N/A   Clear
9:00 AM 39 °F - 36 °F 84% 29.85 in 19 mi South 8.9 mph - -   Clear
9:20 AM 39.2 °F 33.0 °F 37.4 °F 93% 29.83 in - South 9.2 mph - N/A   Clear
9:50 AM 41.0 °F 35.2 °F 37.4 °F 87% 29.83 in - South 9.2 mph - N/A   Clear
10:00 AM 41 °F - 37 °F 81% 29.84 in 19 mi South 8.9 mph - -   Scattered Clouds
10:20 AM 41.0 °F 34.7 °F 37.4 °F 87% 29.83 in - South 10.4 mph - N/A   Clear
10:50 AM 42.8 °F 37.0 °F 37.4 °F 81% 29.80 in - South 10.4 mph - N/A   Clear
11:00 AM 43 °F - 38 °F 77% 29.83 in 19 mi South 8.9 mph - -   Clear
11:20 AM 44.6 °F 39.7 °F 39.2 °F 81% 29.80 in - South 9.2 mph - N/A   Clear
11:50 AM 44.6 °F 38.8 °F 37.4 °F 76% 29.77 in - South 11.5 mph - N/A   Clear
12:00 PM 45 °F - 38 °F 69% 29.81 in 19 mi South 11.2 mph - -   Clear
12:20 PM 46.4 °F 40.7 °F 39.2 °F 76% 29.77 in - South 12.7 mph - N/A   Clear
12:50 PM 48.2 °F - 39.2 °F 71% 29.77 in - South 11.5 mph - N/A   Clear
1:00 PM 48 °F - 39 °F 61% 29.78 in 19 mi South 11.2 mph - -   Scattered Clouds
1:20 PM 48.2 °F - 37.4 °F 66% 29.77 in - South 12.7 mph - N/A   Clear
1:50 PM 48.2 °F - 37.4 °F 66% 29.74 in - South 11.5 mph - N/A   Clear
2:00 PM 48 °F - 38 °F 60% 29.77 in 22 mi South 11.2 mph - -   Scattered Clouds
2:20 PM 48.2 °F - 37.4 °F 66% 29.74 in - South 10.4 mph - N/A   Clear
2:50 PM 48.2 °F - 37.4 °F 66% 29.74 in - South 12.7 mph - N/A   Clear
3:00 PM 48 °F - 38 °F 60% 29.77 in 22 mi South 11.2 mph - -   Scattered Clouds
3:20 PM 48.2 °F - 37.4 °F 66% 29.74 in - South 11.5 mph - N/A   Clear
3:50 PM 48.2 °F - 39.2 °F 71% 29.74 in - South 12.7 mph - N/A   Clear
4:00 PM 47 °F - 39 °F 65% 29.76 in 16 mi South 11.2 mph - -   Overcast
4:20 PM 48.2 °F - 39.2 °F 71% 29.74 in - South 10.4 mph - N/A   Clear
4:50 PM 48.2 °F - 39.2 °F 71% 29.74 in 6.2 mi South 11.5 mph - N/A   Mostly Cloudy
5:00 PM 48 °F - 39 °F 62% 29.75 in 16 mi South 11.2 mph - - Rain Light Rain
5:20 PM 48.2 °F - 39.2 °F 71% 29.74 in 6.2 mi South 11.5 mph - N/A Rain Light Rain
5:50 PM 48.2 °F - 41.0 °F 76% 29.74 in 6.2 mi South 12.7 mph - N/A   Mostly Cloudy
6:00 PM 48 °F - 41 °F 68% 29.75 in 19 mi South 13.4 mph - - Rain Light Rain
6:20 PM 46.4 °F 41.1 °F 41.0 °F 81% 29.74 in 6.2 mi SSW 11.5 mph - N/A   Mostly Cloudy
6:50 PM 48.2 °F - 41.0 °F 76% 29.74 in 6.2 mi SSW 10.4 mph - N/A   Overcast
7:00 PM 47 °F - 41 °F 72% 29.76 in 22 mi SSW 11.2 mph - -   Partly Cloudy
7:20 PM 48.2 °F - 41.0 °F 76% 29.74 in - SSW 10.4 mph - N/A   Clear
7:50 PM 48.2 °F - 41.0 °F 76% 29.74 in - SSW 12.7 mph - N/A   Clear
8:00 PM 48 °F - 40 °F 66% 29.76 in 25 mi SSW 11.2 mph - -   Partly Cloudy
8:20 PM 46.4 °F 41.5 °F 39.2 °F 76% 29.74 in - SSW 10.4 mph - N/A   Clear
8:50 PM 46.4 °F 42.4 °F 39.2 °F 76% 29.74 in - SSW 8.1 mph - N/A   Clear
9:00 PM 47 °F - 40 °F 69% 29.76 in 25 mi SSW 8.9 mph - -   Partly Cloudy
9:20 PM 46.4 °F 42.9 °F 39.2 °F 76% 29.74 in - South 6.9 mph - N/A   Clear
9:50 PM 46.4 °F 41.9 °F 41.0 °F 81% 29.74 in - SSW 9.2 mph - N/A   Clear
10:00 PM 47 °F - 40 °F 70% 29.76 in 25 mi SSW 8.9 mph - -   Scattered Clouds
10:20 PM 46.4 °F 41.5 °F 41.0 °F 81% 29.74 in - SSW 10.4 mph - N/A   Clear
10:50 PM 46.4 °F 41.9 °F 39.2 °F 76% 29.74 in - South 9.2 mph - N/A   Clear
11:00 PM 46 °F - 40 °F 74% 29.76 in 25 mi South 8.9 mph - -   Scattered Clouds
11:20 PM 46.4 °F 41.5 °F 41.0 °F 81% 29.74 in - South 10.4 mph - N/A   Clear
11:50 PM 46.4 °F 41.5 °F 41.0 °F 81% 29.74 in 6.2 mi South 10.4 mph - N/A Rain Light Rain